Погода в Ржанице

Россия / Брянская область     53°25′53″N   33°54′53″E
темп.,
°C
ветер,
м/с
пор.,
м/с
влажн.,
%
обл.,
%
осадки,
мм/ч
давл.,
гПа
погр.,
м
19 апреля, пн
пн1900:00+3ссв269612 0.0 1020193
03:00+3ссв269760 0.0 1020141
06:00+4ссв389694 0.0 1019311
09:00+6св4884100 0.1 1019642
12:00+8св4881100 0.0 1019790
15:00+8св3779100 0.1 1019873
18:00+6св51191100 0.6 1019814
21:00+5св4993100 0.8 10191050
20 апреля, вт
вт2000:00+5св4897100 0.1 1018620
03:00+5св3896100 0.2 1016521
06:00+4св4895100 0.1 1015592
09:00+4св469498 0.2 1015306
12:00+6св3791100 0.1 1014367
15:00+7св478992 0.3 1012578
18:00+6св5989100 0.0 1010616
21:00+3ссв4996100 0.1 1009480
21 апреля, ср
ср2100:00+3с4896100 0.1 1006484
03:00+2сз4897100 0.2 1005527
06:00+3зсз4995100 0.0 1005693
09:00+4зсз4108198 0.1 10061049
12:00+7зюз5769100 0.1 10071182
15:00+9зюз476476 0.4 10091296
18:00+9зюз4763100 0.1 10101187
21:00+7юз487799 0.2 10111017
22 апреля, чт
чт2200:00+7ююз41180100 0.4 1011599
03:00+5ююз3992100 0.5 1012275
06:00+6ю399393 0.4 1013326
09:00+10ююз487847 1.2 1014610
12:00+14ююз586153 0.5 10141390
15:00+15ююз585758 2.2 10141826
18:00+13ююз51069100 2.0 1014839
21:00+9ююз3889100 2.6 1016179
23 апреля, пт
пт2300:00+8ююв379154 0.6 1016157
03:00+7ююв3109492 0.6 1015235
06:00+7ююв4129148 0.0 1014355
09:00+12ю51275100 0.1 1013615
12:00+16ю6125710 0.9 10112141
15:00+16ююз71259100 2.6 10101847
18:00+6зсз4789100 5.5 1013617
21:00+5зюз3686100 5.5 1014598